Printer-friendly version

IAU Minor Planet Center

Minor Planet Center

MPEC 2007-V40 : 2007 VD8

The following Minor Planet Electronic Circular may be linked-to from your own Web pages, but must not otherwise be redistributed electronically.


Read MPEC 2007-V39 Read MPEC 2007-V41


M.P.E.C. 2007-V40                                Issued 2007 Nov. 5, 22:11 UT

     The Minor Planet Electronic Circulars contain information on unusual
         minor planets and routine data on comets.  They are published
   on behalf of Commission 20 of the International Astronomical Union by the
          Minor Planet Center, Smithsonian Astrophysical Observatory,
                          Cambridge, MA 02138, U.S.A.

             Prepared using the Tamkin Foundation Computer Network

                              MPC@CFA.HARVARD.EDU
          URL http://www.cfa.harvard.edu/iau/mpc.html  ISSN 1523-6714

                                   2007 VD8

Observations:
     K07V08D* C2007 11 05.31632 03 08 15.03 +15 49 16.2          21.4 V EV040G96
     K07V08D  C2007 11 05.32077 03 08 18.52 +15 50 10.5          21.0 V EV040G96
     K07V08D  C2007 11 05.32535 03 08 22.12 +15 51 06.6          20.6 V EV040G96
     K07V08D  C2007 11 05.36831 03 08 55.53 +15 59 38.9          20.8 V EV040G96
     K07V08D  C2007 11 05.36884 03 08 55.93 +15 59 44.9          21.2 V EV040G96
     K07V08D  C2007 11 05.36937 03 08 56.40 +15 59 51.8          20.6 V EV040G96
     K07V08D  C2007 11 05.36991 03 08 56.79 +15 59 57.7          21.1 V EV040G96
     K07V08D  C2007 11 05.42851 03 09 42.22 +16 11 16.1          21.2 V EV040G96
     K07V08D  C2007 11 05.42904 03 09 42.80 +16 11 23.8          21.4 V EV040G96
     K07V08D  C2007 11 05.42958 03 09 43.05 +16 11 28.7          20.8 V EV040G96
     K07V08D  C2007 11 05.43012 03 09 43.52 +16 11 35.1          21.4 V EV040G96

Observer details:
G96 Mt. Lemmon Survey.  Observer A. R. Gibbs.  Measurers E. C. Beshore,
    A. Boattini, G. J. Garradd, A. R. Gibbs, A. D. Grauer, R. E. Hill,
    R. A. Kowalski, S. M. Larson, R. H. McNaught.  1.5-m reflector + CCD.

Orbital elements:
2007 VD8                                                 Earth MOID = 0.0076 AU
Epoch 2007 Oct. 27.0 TT = JDT 2454400.5                 MPC
M   6.25228              (2000.0)            P               Q
n   0.28445066     Peri.  318.39215     +0.99868312     -0.03472636
a   2.2898028      Node    43.64224     +0.04768363     +0.89988571
e   0.5928217      Incl.    3.13669     -0.01892894     +0.43474107
P   3.46           H   27.9           G   0.15           U   9
Residuals in seconds of arc
071105 G96  0.1-  0.4-    071105 G96  0.4-  0.3-    071105 G96  1.7+  1.0+
071105 G96  0.1-  0.1-    071105 G96  0.5+  0.3+    071105 G96  0.8-  0.3-
071105 G96  0.2+  0.6+    071105 G96  0.1+  0.1-    071105 G96  0.1-  0.0
071105 G96  0.2-  0.1-    071105 G96  0.8-  0.7-

Ephemeris:
2007 VD8                 a,e,i = 2.29, 0.59, 3                   q = 0.9324
Date    TT    R. A. (2000) Decl.     Delta      r     Elong.  Phase     V
2007 11 06    03 17.27   +17 52.5    0.0366   1.028   171.4     8.3    21.4
2007 11 07    03 27.55   +20 06.6    0.0428   1.033   169.4    10.1    21.8
2007 11 08    03 35.39   +21 45.1    0.0490   1.039   168.1    11.3    22.1
2007 11 09    03 41.52   +23 00.0    0.0554   1.045   167.3    12.1    22.4
2007 11 10    03 46.44   +23 58.5    0.0618   1.051   166.8    12.5    22.7
2007 11 11    03 50.43   +24 45.2    0.0683   1.057   166.5    12.6    22.9
2007 11 12    03 53.74   +25 23.2    0.0749   1.063   166.5    12.6    23.1
2007 11 13    03 56.50   +25 54.5    0.0815   1.069   166.6    12.4    23.3
2007 11 14    03 58.83   +26 20.7    0.0881   1.076   166.9    12.1    23.5
2007 11 15    04 00.81   +26 42.7    0.0949   1.082   167.2    11.7    23.7
2007 11 16    04 02.52   +27 01.3    0.102    1.089   167.6    11.3    23.8

Timothy B. Spahr             (C) Copyright 2007 MPC           M.P.E.C. 2007-V40

Read MPEC 2007-V39 Read MPEC 2007-V41


Our Web policy. Index to the CBAT/MPC/ICQ pages.


Valid HTML 4.01!